Find Starlink 32163

NORAD ID: 60262 Int'l Des: 2024-131 Owner: SPXS Country: US Constellation: starlink operational
LEOCIRCULAR

現在のビュー

3D地球を読み込み中...

About Starlink 32163

Starlink 32163 (NORAD 60262) is a starlink constellation satellite (v2 mini) launched Jul 27, 2024 by SPXS of US. It operates in LEO, CIRCULAR orbit with a mass of 730.00 kg.

次回通過

Passes for default location (London). Set your location on the main map for personalized predictions.

高度履歴

Loading altitude history...

軌道要素

1 60262U 24131H 26237.04348238 .00003057 00000-0 11026-3 0 9997
2 60262 53.1616 349.0758 0002398 81.2904 278.8369 15.31692525117519
Epoch: Aug 25, 2026 • Age: 12 hours

現在のステータス

高度 471.2 km
遠地点 / 近地点 N/A
速度 7.63 km/s
衛星直下点 26.22°N, 18.13°W
打ち上げ日 Jul 27, 2024
運用期間 2 years
タイプ internet

技術仕様

分類 Payload
質量 730.00 kg
乾燥質量 700.00 kg
総質量 730.00 kg
長さ 0.30 m
直径 4.10 m
スパン 29.00 m
形状 Box + pan
製造者 SPXS
バスタイプ Starlink V2M
フェーズステータス In Orbit
所有者/国 SPXS/US

Most Searched